User: anonymous   Login
Location: Boissi�res
(45.2500°N, 2.3667°E)
Time: 23:44:00
(UTC+00:00)
Language:

CZ-2C R/B - Orbit

View from above orbital plane
View from above orbital plane
View from above satellite
View from above satellite

Ground track
Ground track

The orbit data is extracted from the following two-line orbital elements,

1 31114U 07010B   21127.79610451  .00000017  00000-0  26484-4 0  9990
2 31114  98.2352 324.3645 0060564  42.3028 318.2797 14.19359111729019
Epoch (UTC): 07 May 2021 19:06:23
Eccentricity: 0.0060564
inclination: 98.2352°
perigee height: 784 km
apogee height: 871 km
right ascension of ascending node: 324.3645°
argument of perigee: 42.3028°
revolutions per day: 14.19359111
mean anomaly at epoch: 318.2797°
orbit number at epoch: 72901

The dashed part of the orbit path shows where the satellite is in the earth's shadow,  

DLR